Retour au catalogue

QIANFAN-177

ActifCommunicationsPO
NORAD 69394·PAYLOAD·🇨🇳 China

Lancé Jun 4, 2026 depuis Taiyuan Satellite Launch Center

Loading…

Prochains Passages (prochaines 24 heures)

TLE

FraisSource: Space-Track

Époque: Sep 14, 2026, 14:09 UTC

1 69394U 26124N   26257.59000225  .00000132  00000-0  18638-3 0  9996
2 69394  89.0068 352.5546 0002072 109.8080 250.3295 13.51029320 14143

Suivez QIANFAN-177 en temps réel avec AllMySat

Download on the App Store